Regional Weather Roundup
Issued by NWS Midland/Odessa, TX

Skip options and go directly to product.
Home | Oldest Version | Next Version | Current Version | All | Text Only | Save Text | Print | Product List | Glossary On

Skip product version selection by date and time.   
524
ASUS44 KMAF 170502
RWRMAF
MIDLAND AREA WEATHER ROUNDUP
NATIONAL WEATHER SERVICE MIDLAND TX
1200 AM CDT WED SEP 17 2014

...IN SOUTHWEST TEXAS AND SOUTHEAST NEW MEXICO...

CITY           SKY/WX    TMP DP  RH WIND       PRES   REMARKS
ALPINE         PTCLDY    68  60  76 CALM      30.22F
ANDREWS        FAIR      69  68  97 N3        30.13F
ARTESIA        NOT AVBL
BIG SPRING     CLOUDY    74  69  83 NE8       30.12S
CARLSBAD       CLOUDY    72  71  97 N5        30.12S
DRYDEN           N/A     78  68  71 CALM      30.03F
FORT STOCKTON  PTCLDY    71  64  78 SE5       30.10S
GUAD PASS      CLOUDY    65  59  81 NE26      30.22F
HOBBS          CLOUDY    66  66 100 CALM      30.16S
MARFA          MOCLDY    64  61  88 NE7       30.19F
MIDLAND AIRPK  NOT AVBL
MIDLAND INTL   MOCLDY    74  65  73 E8        30.10S
ODESSA         MOCLDY    72  65  78 E6        30.12S
PECOS          PTCLDY    73  63  72 NE6       30.07S
PRESIDIO       FAIR      79  63  57 NE10      30.04R
SEMINOLE       CLOUDY    67  66  96 CALM      30.15S
SNYDER         CLOUDY    71  69  94 E5        30.10S
WINK           PTCLDY    74  68  81 NE10      30.08S
$$
...OTHER STATIONS IN TEXAS...

CITY           SKY/WX    TMP DP  RH WIND       PRES   REMARKS
ABILENE        CLOUDY    78  66  66 CALM      30.07R
AMARILLO       CLOUDY    66  62  87 SW9       30.12S
AUSTIN         CLOUDY    76  74  93 CALM      30.01F
BROWNSVILLE    PTCLDY    79  76  90 CALM      29.98R
CORPUS CHRISTI PTCLDY    80  76  87 SE6       29.96F
DALLAS FTW     MOCLDY    82  69  64 SE8       30.01F
DEL RIO        CLOUDY    82  71  69 E8        29.98R
EL PASO        CLOUDY    70  64  81 N14       30.11S
HOUSTON INT    CLOUDY    77  75  93 SE3       30.01F
LUBBOCK        LGT RAIN  68  67  96 SW3       30.12F FOG
SAN ANGELO     CLOUDY    80  66  62 SE7       30.05S
SAN ANTONIO    CLOUDY    79  74  84 E8        30.02S
WACO           CLOUDY    76  72  87 S5        30.01F
WICHITA FALLS  NOT AVBL
$$
...OTHER LOCATIONS IN NEW MEXICO...

CITY           SKY/WX    TMP DP  RH WIND       PRES   REMARKS
ALAMAGORDO     CLOUDY    66  64  94 CALM      30.16R
ALBUQUERQUE    CLOUDY    63  55  75 CALM      30.24S
CANNON AFB     NOT AVBL
CLOVIS           N/A     64  61  88 W10       30.18F
HOLLOMAN AFB   NOT AVBL
ROSWELL        CLOUDY    67  65  93 CALM      30.15S FOG
RUIDOSO        CLOUDY    55  55 100 CALM      30.33S
SANTA FE       CLOUDY    60  52  74 SW6       30.27S
TRUTH OR CONSE CLOUDY    64  61  90 N6        30.18F
TUCUMCARI      CLOUDY    66  60  81 SW8       30.13F
$$

USA.gov is the U.S. government's official web portal to all federal, state and local government web resources and services.